Track STARLINK-2689 now! 10-day predictions STARLINK-2689 is classified as:
1 48463U 21040AM 22186.46432196 -.00000642 00000-0 -24179-4 0 9997 2 48463 53.0558 101.6033 0001926 72.0820 288.0379 15.06404516 64047